Location: Dakoming
(43.5975°N, 104.0727°W)
Time: 01:46:35
(UTC+00:00)

X-37B - Visible Passes

Search period start: 11 June 2023 00:00
Search period end: 21 June 2023 00:00
Orbit: 277 x 277 km, 45.0° (Epoch: 01 November)

Date Brightness Start Highest point End Pass type
(mag) Time Alt. Az. Time Alt. Az. Time Alt. Az.
11 Jun 1.1 09:44:27 26° S 09:44:56 29° SSE 09:47:08 10° E visible
12 Jun 0.2 09:44:49 34° SSW 09:45:32 48° SSE 09:47:56 10° E visible
13 Jun -0.2 09:45:11 30° WSW 09:46:12 78° SSE 09:48:39 10° ENE visible
14 Jun 0.0 09:45:32 23° W 09:46:53 75° NNW 09:49:21 10° ENE visible
15 Jun 0.3 09:45:54 17° W 09:47:36 61° N 09:50:03 10° ENE visible
16 Jun 3.0 08:16:16 12° E 08:16:16 12° E 08:16:32 10° E visible
16 Jun 0.5 09:46:18 13° W 09:48:20 56° N 09:50:46 10° E visible
17 Jun 2.8 08:16:44 14° ENE 08:16:44 14° ENE 08:17:14 10° ENE visible
17 Jun 0.4 09:46:46 11° WNW 09:49:04 60° N 09:51:30 10° E visible
18 Jun 2.7 08:17:20 15° ENE 08:17:20 15° ENE 08:17:55 10° ENE visible
18 Jun 0.0 09:47:22 10° WNW 09:49:47 74° NNE 09:52:14 10° E visible
19 Jun 2.8 08:18:08 14° ENE 08:18:08 14° ENE 08:18:38 10° E visible
19 Jun -0.3 09:48:11 11° WNW 09:50:28 79° SSW 09:52:55 10° ESE visible
20 Jun 3.2 08:19:21 10° E 08:19:21 10° E 08:19:22 10° E visible
20 Jun 0.0 09:49:27 17° W 09:51:08 49° SSW 09:53:31 10° SE visible
